Weather History for Redmond, OR

Change the Weather History Date:

Thursday, February 28, 2013

  Actual Average Record
Temperature  
Mean Temperature 44 °F 37 °F  
Max Temperature 55 °F 50 °F 65 °F (1959)
Min Temperature 32 °F 24 °F -7 °F (1960)
Degree Days  
Heating Degree Days 21 28  
Month to date heating degree days 822 834  
Since 1 July heating degree days 4467 4673  
Cooling Degree Days 0 0  
Month to date cooling degree days 0 0  
Year to date cooling degree days 0 0  
Moisture  
Dew Point 35 °F    
Average Humidity 72    
Maximum Humidity 92    
Minimum Humidity 51    
Precipitation  
Precipitation T in 0.02 in 0.53 in (1970)
Month to date precipitation 0.01 0.65  
Year to date precipitation 0.42 1.62  
Sea Level Pressure  
Sea Level Pressure 30.32 in    
Wind  
Wind Speed 7 mph (South)    
Max Wind Speed 20 mph    
Max Gust Speed 25 mph    
Visibility 10 miles    
Events      
T = Trace of Precipitation, MM = Missing Value Source: NWS Daily Summary

Daily Weather History Graph

Daily Weather History Graph

Search for Another Location

Airport:

Trip Planner

Search our weather history database for the weather conditions in past years. The results will help you decide how hot, cold, wet, or windy it might be!

Date:

Astronomy

Feb. 28, 2013 Rise Set
Actual Time 6:42 AM PST 5:51 PM PST
Civil Twilight 6:13 AM PST 6:21 PM PST
Nautical Twilight 5:40 AM PST 6:54 PM PST
Astronomical Twilight 5:06 AM PST 7:28 PM PST
Moon 9:35 PM PST (2/28) 7:46 AM PST (2/28)
Length of Visible Light 12h 07m
Length of Day
11h 09m
Waning Gibbous, 90% of the Moon is Illuminated
Feb 28
Waning Gibbous
Mar 4
Last Quarter
Mar 11
New
Mar 19
First Quarter
Mar 27
Full

Hourly Weather History & Observations

Time (PST) Temp. Windchill Dew Point Humidity Pressure Visibility Wind Dir Wind Speed Gust Speed Precip Events Conditions
12:56 AM 43.0 °F 35.7 °F 28.0 °F 56% 30.24 in 10.0 mi South 15.0 mph - N/A   Overcast
1:56 AM 43.0 °F 36.0 °F 30.0 °F 60% 30.24 in 10.0 mi South 13.8 mph 21.9 mph 0.00 in   Overcast
2:56 AM 42.1 °F 36.6 °F 28.9 °F 60% 30.23 in 10.0 mi South 9.2 mph - N/A   Mostly Cloudy
3:56 AM 42.1 °F 34.9 °F 32.0 °F 67% 30.22 in 10.0 mi South 13.8 mph - N/A   Mostly Cloudy
4:56 AM 43.0 °F 36.0 °F 33.1 °F 68% 30.23 in 10.0 mi South 13.8 mph - N/A   Overcast
5:56 AM 43.0 °F 36.4 °F 34.0 °F 71% 30.24 in 10.0 mi South 12.7 mph 21.9 mph N/A   Overcast
6:56 AM 44.1 °F 38.1 °F 34.0 °F 68% 30.26 in 10.0 mi South 11.5 mph - N/A   Overcast
7:56 AM 45.0 °F 39.3 °F 35.1 °F 68% 30.27 in 10.0 mi South 11.5 mph - N/A   Overcast
8:56 AM 46.0 °F 42.5 °F 36.0 °F 68% 30.30 in 10.0 mi South 6.9 mph - N/A   Mostly Cloudy
9:56 AM 48.0 °F - 36.0 °F 63% 30.30 in 10.0 mi South 6.9 mph - N/A   Overcast
10:56 AM 50.0 °F - 36.0 °F 59% 30.30 in 10.0 mi SSW 8.1 mph - N/A   Mostly Cloudy
11:56 AM 51.1 °F - 37.0 °F 59% 30.33 in 10.0 mi West 4.6 mph - N/A   Overcast
12:56 PM 52.0 °F - 37.0 °F 57% 30.32 in 10.0 mi Calm Calm - 0.00 in   Overcast
1:56 PM 54.0 °F - 37.0 °F 53% 30.32 in 8.0 mi Calm Calm - N/A   Scattered Clouds
2:56 PM 55.0 °F - 37.0 °F 51% 30.33 in 10.0 mi Calm Calm - N/A   Overcast
3:56 PM 55.0 °F - 37.0 °F 51% 30.34 in 10.0 mi SE 3.5 mph - N/A   Overcast
5:56 PM 51.1 °F - 37.9 °F 61% 30.38 in 10.0 mi ESE 4.6 mph - N/A   Mostly Cloudy
6:56 PM 48.9 °F - 37.9 °F 66% 30.40 in 10.0 mi Calm Calm - N/A   Overcast
7:56 PM 46.9 °F - 37.9 °F 71% 30.41 in 10.0 mi Calm Calm - N/A   Mostly Cloudy
8:56 PM 37.9 °F 35.5 °F 33.1 °F 83% 30.43 in 10.0 mi NE 3.5 mph - N/A   Clear
9:56 PM 36.0 °F 32.1 °F 33.1 °F 89% 30.45 in 10.0 mi NNE 4.6 mph - N/A   Partly Cloudy
11:56 PM 37.9 °F 35.5 °F 34.0 °F 86% 30.47 in 10.0 mi SSE 3.5 mph - N/A   Mostly Cloudy